Location: Anumalkud?ru
(16.4847°N, 80.6636°E)
Time: 11:09:22
(UTC+00:00)

Cosmos 1066 Rocket - Pass Details

Date: 11 April 2026
Orbit: 798 x 892 km, 81.2° (Epoch: 20 May)

Event Time Altitude Azimuth Distance (km) Brightness Sun altitude
Rises 22:57:30 0° 183° (S) 3,414 7.2 -21.2°
Reaches altitude 10° 22:59:56 10° 182° (S) 2,465 6.4 -20.6°
Maximum altitude 23:05:31 81° 95° (E) 844 4.2 -19.3°
Drops below altitude 10° 23:10:58 10° 8° (N) 2,407 6.9 -18.1°
Sets 23:13:20 0° 8° (N) 3,328 7.6 -17.5°
